User: anonymous   Login
Location: Newark
(50.4348°N, 30.5552°E)
Time: 01:34:29
(UTC+00:00)
Language:

S-56A Canister/Altair - Orbit

View from above orbital plane
View from above orbital plane
View from above satellite
View from above satellite

Ground track
Ground track

The orbit data is extracted from the following two-line orbital elements,

1    82U 61004B   20027.23600243 -.00000030 +00000-0 +21968-4 0  9996
2    82 038.8576 004.9808 1173556 117.2028 255.3085 12.26059874790353
Epoch (UTC): 27 January 2020 05:39:50
Eccentricity: 0.1173556
inclination: 38.8576°
perigee height: 634 km
apogee height: 2498 km
right ascension of ascending node: 4.9808°
argument of perigee: 117.2028°
revolutions per day: 12.26059874
mean anomaly at epoch: 255.3085°
orbit number at epoch: 79035

The dashed part of the orbit path shows where the satellite is in the earth's shadow,  

DLR